DW8241 Weather Reports


Display with metric or nautical units.
time (UTC)temp
F
wind
direction
speed
MPH
gust
MPH
rain 1hr
in
rain 24hr
in
rain mn
in
humidity
%
barometer
mb
20260508153027 57 313 13.0 19.0 0.00 0.00 0.00 37 1004.9
20260508151525 58 309 12.0 19.0 0.00 0.00 0.00 35 1004.9
20260508150020 57 273 9.0 15.0 0.00 0.00 0.00 39 1004.9
20260508144517 56 271 8.0 14.0 0.00 0.00 0.00 43 1005.0
20260508143016 54 286 10.0 13.0 0.00 0.00 0.00 44 1005.2
20260508141510 52 269 7.0 14.0 0.00 0.00 0.00 46 1005.3
20260508140006 51 250 0.0 7.0 0.00 0.00 0.00 52 1005.6
20260508134504 49 250 4.0 8.0 0.00 0.00 0.00 52 1005.6
20260508133101 48 233 0.0 0.0 0.00 0.00 0.00 57 1005.7
20260508131552 46 239 0.0 0.0 0.00 0.00 0.00 61 1005.8
20260508130048 44 240 0.0 0.0 0.00 0.00 0.00 65 1005.9
20260508124543 42 234 0.0 0.0 0.00 0.00 0.00 66 1005.8
20260508123048 41 264 0.0 0.0 0.00 0.00 0.00 66 1005.9
20260508121537 41 231 0.0 0.0 0.00 0.00 0.00 67 1005.9
20260508120036 40 250 0.0 0.0 0.00 0.00 0.00 67 1006.0
20260508114530 38 240 0.0 0.0 0.00 0.00 0.00 72 1006.1
20260508113030 37 231 0.0 0.0 0.00 0.00 0.00 72 1006.1
20260508111535 36 218 0.0 0.0 0.00 0.00 0.00 74 1006.2
20260508110027 38 239 0.0 6.0 0.00 0.00 0.00 70 1006.3
20260508104526 36 229 0.0 0.0 0.00 0.00 0.00 73 1006.4
20260508103028 38 236 0.0 0.0 0.00 0.00 0.00 69 1006.4
20260508101524 39 241 0.0 0.0 0.00 0.00 0.00 66 1006.4
20260508100022 40 233 0.0 0.0 0.00 0.00 0.00 66 1006.4
20260508094516 39 248 0.0 0.0 0.00 0.00 0.00 69 1006.6
20260508093017 38 226 0.0 0.0 0.00 0.00 0.00 71 1006.9
20260508091512 37 233 0.0 0.0 0.00 0.00 0.00 70 1007.0
20260508090019 37 219 0.0 0.0 0.00 0.00 0.00 69 1007.1
20260508084509 37 245 0.0 0.0 0.00 0.00 0.00 70 1007.1
20260508083009 38 245 0.0 0.0 0.00 0.00 0.00 69 1007.3
20260508081503 37 245 0.0 0.0 0.00 0.00 0.00 72 1007.5
20260508080058 36 245 0.0 0.0 0.00 0.00 0.00 74 1007.5
20260508074556 36 222 0.0 0.0 0.00 0.00 0.00 77 1007.8
20260508073109 36 240 0.0 0.0 0.00 0.00 0.00 74 1008.0
20260508071555 36 237 0.0 0.0 0.00 0.00 0.00 72 1008.1
20260508070051 36 237 0.0 0.0 0.00 0.00 0.00 69 1008.2
20260508064552 34 232 0.0 0.0 0.00 0.00 0.00 71 1008.4
20260508063051 33 232 0.0 0.0 0.00 0.00 0.00 73 1008.5
20260508061546 34 226 0.0 4.0 0.00 0.00 0.00 72 1008.5
20260508060059 31 210 0.0 0.0 0.00 0.00 0.00 79 1008.6
20260508054539 32 221 0.0 0.0 0.00 0.00 0.00 79 1008.6
20260508053037 33 323 0.0 0.0 0.00 0.00 0.00 76 1008.8
20260508051540 33 323 0.0 0.0 0.00 0.00 0.00 74 1008.8
20260508050030 35 323 0.0 0.0 0.00 0.00 0.00 71 1008.9
20260508044529 37 323 0.0 0.0 0.00 0.00 0.00 64 1008.9
20260508043028 38 323 0.0 0.0 0.00 0.00 0.00 59 1008.9
20260508041527 39 323 0.0 0.0 0.00 0.00 0.00 59 1008.9
20260508040026 40 331 0.0 3.0 0.00 0.00 0.00 57 1009.0
20260508034538 40 332 0.0 3.0 0.00 0.00 0.00 61 1009.0
20260508033025 41 85 0.0 0.0 0.00 0.00 0.00 59 1009.0
20260508031529 42 85 0.0 0.0 0.00 0.00 0.00 56 1009.1
20260508030024 43 85 0.0 0.0 0.00 0.00 0.00 52 1008.9
20260508024547 44 85 0.0 1.0 0.00 0.00 0.00 50 1008.9
20260508023023 45 349 0.0 0.0 0.00 0.00 0.00 53 1008.8
20260508021523 47 349 0.0 0.0 0.00 0.00 0.00 47 1008.7
20260508020022 50 355 0.0 1.0 0.00 0.00 0.00 44 1008.6
20260508014524 52 352 0.0 2.0 0.00 0.00 0.00 40 1008.4
20260508013022 55 22 0.0 2.0 0.00 0.00 0.00 37 1008.3
20260508011526 57 14 1.0 4.0 0.00 0.00 0.00 35 1008.2
20260508010021 57 342 3.0 7.0 0.00 0.00 0.00 34 1008.2
20260508004536 58 32 2.0 8.0 0.00 0.00 0.00 34 1008.2
20260508003019 58 348 4.0 11.0 0.00 0.00 0.00 33 1008.3
20260508001530 59 4 6.0 13.0 0.00 0.00 0.00 34 1008.3
20260508000017 59 345 8.0 13.0 0.00 0.00 0.00 32 1008.4
20260507234517 59 316 5.0 12.0 0.00 0.00 0.00 32 1008.4
20260507233015 59 293 4.0 10.0 0.00 0.00 0.00 34 1008.4
20260507231513 59 295 5.0 16.0 0.00 0.00 0.00 34 1008.5
20260507230114 58 321 3.0 13.0 0.00 0.00 0.00 34 1008.5
20260507224513 58 9 7.0 13.0 0.00 0.00 0.00 35 1008.6
20260507223011 58 323 7.0 13.0 0.00 0.00 0.00 35 1008.6
20260507221510 58 338 7.0 12.0 0.00 0.00 0.00 36 1008.8
20260507220008 58 324 7.0 17.0 0.00 0.00 0.00 35 1008.8
20260507214505 58 287 4.0 16.0 0.00 0.00 0.00 35 1009.1
20260507213003 57 342 8.0 17.0 0.00 0.00 0.00 35 1009.2
20260507211502 58 290 8.0 16.0 0.00 0.00 0.00 36 1009.3
20260507210111 58 328 9.0 17.0 0.00 0.00 0.00 34 1009.4
20260507204601 58 340 8.0 19.0 0.00 0.00 0.00 33 1009.6
20260507203122 57 311 9.0 19.0 0.00 0.00 0.00 36 1009.7
20260507201554 57 352 7.0 15.0 0.00 0.00 0.00 36 1009.8
20260507200052 56 346 11.0 17.0 0.00 0.00 0.00 37 1010.1
20260507194601 56 279 7.0 16.0 0.00 0.00 0.00 37 1010.2
20260507193046 56 28 7.0 13.0 0.00 0.00 0.00 40 1010.5
20260507191547 55 34 5.0 13.0 0.00 0.00 0.00 42 1010.4
20260507190051 54 296 6.0 16.0 0.00 0.00 0.00 41 1010.6
20260507184540 54 321 2.0 23.0 0.00 0.00 0.00 44 1010.6
20260507183039 54 306 8.0 15.0 0.00 0.00 0.00 41 1010.7
20260507181539 53 313 0.0 17.0 0.00 0.00 0.00 44 1010.9
20260507180039 53 303 7.0 15.0 0.00 0.00 0.00 41 1011.1
20260507174540 52 336 0.0 12.0 0.00 0.00 0.00 42 1011.3
20260507173050 52 343 0.0 13.0 0.00 0.00 0.00 45 1011.7
20260507171528 52 296 1.0 11.0 0.00 0.00 0.00 45 1011.8
20260507170024 51 359 4.0 8.0 0.00 0.00 0.00 46 1011.9
20260507164520 50 305 0.0 10.0 0.00 0.00 0.00 47 1012.1
20260507163017 49 323 0.0 0.0 0.00 0.00 0.00 47 1012.3
20260507161517 48 10 0.0 0.0 0.00 0.00 0.00 52 1012.5
20260507160011 47 13 0.0 0.0 0.00 0.00 0.00 57 1012.5
20260507154509 46 27 0.0 0.0 0.00 0.00 0.00 55 1012.6